Vereeniging Airport

Jump to: basic info | weather | frequencies | runways | comments

Related pages: nearby airports | nearby navaids | notams | map

Basic information (top)

Codes: FAVV
Location: lon -26.566401, lat 27.960800, elev 4,846 ft / 1,477 m msl
Status: medium_airport

Weather (top)

Current conditions (rec'd 2014/10/22 06:00Z):

FAVV 220600Z AUTO 07005KT //// // ////// 19/09 Q1026

Airport forecast for OR Tambo International Airport 30nm (55km) NNE (rec'd 2014/10/22 00:00Z):

TAF FAOR 212200Z 2200/2306 03012KT CAVOK 
      BECMG 2206/2208 33012KT 
     FM221000 30013KT 9999 SCT045 
      TEMPO 2213/2220 5000 TSRA FEW040CB 
      TEMPO 2214/2216 18020G32KT 
      BECMG 2220/2222 03007KT SCT010 PROB30 
      TEMPO 2303/2306 5000 BR BKN006 TX28/2213ZTN12/2202Z

Frequencies (top)

Verify before use: may be inaccurate or out of date.

CTAF: 122.1 MHz (CTAF)

Runways (top)

03/21: 5,266 x 72 ft (1,605 x 22 m) — paved — lighted — threshold 21 displaced 260 ft (79 m)

15/33: 3,724 x 52 ft (1,135 x 16 m) — paved — not lighted

Latest comments (top)

help: My son whom is in Grade 11 has a school ... [read]

Information: Good day this is Mpho, i just need to ... [read]

More... (top)

See also NOTAMs and nearby airports and navaids, or visit the Vereeniging Airport page at the main OurAirports website..